Volver al catálogo

THOR BURNER 2 R/B

ActivoSSO
NORAD 7817·ROCKET BODY·🇺🇸 United States

Lanzado May 24, 1975 desde Vandenberg Space Force Base

Loading…

Próximos Pases (próximas 24 horas)

TLE

ActualizadoSource: Space-Track

Época: Sep 14, 2026, 12:37 UTC

1 07817U 75043B   26257.52625926  .00000036  00000-0  36810-4 0  9992
2 07817  98.6674 101.2615 0052497 212.4716 147.3227 14.19846841376076

Sigue THOR BURNER 2 R/B en tiempo real con AllMySat

Download on the App Store